Time,TemperatureF,DewpointF,PressureIn,WindDirection,WindDirectionDegrees,WindSpeedMPH,WindSpeedGustMPH,Humidity,HourlyPrecipIn,Conditions,Clouds,dailyrainin,SoftwareType,DateUTC
2013-05-31 00:01:00,68.2,62.5,28.05,East,90,0.0,0.0,82,0.00,,---,0.00,VWS V14.01,2013-05-31 04:01:00,
2013-05-31 00:03:00,68.0,62.3,28.05,East,90,0.0,0.0,82,0.00,,---,0.00,VWS V14.01,2013-05-31 04:03:00,
2013-05-31 00:08:00,68.0,62.3,28.08,ENE,68,0.0,0.0,82,0.00,,---,0.00,VWS V14.01,2013-05-31 04:08:00,
2013-05-31 00:13:00,68.0,62.7,28.08,East,90,0.0,0.0,83,0.00,,---,0.00,VWS V14.01,2013-05-31 04:13:00,
2013-05-31 00:18:00,68.0,62.7,28.08,SE,135,0.0,0.0,83,0.00,,---,0.00,VWS V14.01,2013-05-31 04:18:00,
2013-05-31 00:23:00,67.8,62.8,28.05,ESE,112,0.0,0.0,84,0.00,,---,0.00,VWS V14.01,2013-05-31 04:23:00,
2013-05-31 00:28:00,67.8,62.8,28.05,ESE,112,0.0,2.0,84,0.00,,---,0.00,VWS V14.01,2013-05-31 04:28:00,
2013-05-31 00:33:00,67.8,62.8,28.05,East,90,0.0,0.0,84,0.00,,---,0.00,VWS V14.01,2013-05-31 04:33:00,
2013-05-31 00:38:00,67.6,62.6,28.08,East,90,0.0,0.9,84,0.00,,---,0.00,VWS V14.01,2013-05-31 04:38:00,
2013-05-31 00:43:00,67.6,62.6,28.08,NE,45,0.0,0.0,84,0.00,,---,0.00,VWS V14.01,2013-05-31 04:43:00,
2013-05-31 00:48:00,67.6,63.0,28.08,East,90,0.9,0.9,85,0.00,,---,0.00,VWS V14.01,2013-05-31 04:48:00,
2013-05-31 00:54:00,67.6,63.0,28.08,East,90,0.0,0.0,85,0.00,,---,0.00,VWS V14.01,2013-05-31 04:54:00,
2013-05-31 00:59:00,67.6,63.0,28.08,SSE,158,0.0,0.0,85,0.00,,---,0.00,VWS V14.01,2013-05-31 04:59:00,
2013-05-31 01:04:00,67.5,62.8,28.08,ENE,68,0.9,0.9,85,0.00,,---,0.00,VWS V14.01,2013-05-31 05:04:00,
2013-05-31 01:09:00,67.5,62.8,28.08,ESE,112,0.0,1.1,85,0.00,,---,0.00,VWS V14.01,2013-05-31 05:09:00,
2013-05-31 01:14:00,67.5,63.1,28.08,East,90,0.0,0.0,86,0.00,,---,0.00,VWS V14.01,2013-05-31 05:14:00,
2013-05-31 01:19:00,67.5,63.1,28.08,SE,135,0.0,1.3,86,0.00,,---,0.00,VWS V14.01,2013-05-31 05:19:00,
2013-05-31 01:24:00,67.5,63.1,28.08,East,90,0.9,0.9,86,0.00,,---,0.00,VWS V14.01,2013-05-31 05:24:00,
2013-05-31 01:29:00,67.5,63.1,28.08,SE,135,1.3,1.3,86,0.00,,---,0.00,VWS V14.01,2013-05-31 05:29:00,
2013-05-31 01:34:00,67.5,63.1,28.08,SE,135,1.3,1.3,86,0.00,,---,0.00,VWS V14.01,2013-05-31 05:34:00,
2013-05-31 01:39:00,67.5,63.1,28.05,SE,135,1.3,1.3,86,0.00,,---,0.00,VWS V14.01,2013-05-31 05:39:00,
2013-05-31 01:44:00,67.5,63.1,28.05,ESE,112,0.0,2.0,86,0.00,,---,0.00,VWS V14.01,2013-05-31 05:44:00,
2013-05-31 01:50:00,67.5,63.1,28.05,ENE,68,0.0,0.0,86,0.00,,---,0.00,VWS V14.01,2013-05-31 05:50:00,
2013-05-31 01:55:00,67.3,63.0,28.05,NNE,22,0.9,0.9,86,0.00,,---,0.00,VWS V14.01,2013-05-31 05:55:00,
2013-05-31 02:00:00,67.3,63.0,28.05,East,90,0.0,0.0,86,0.00,,---,0.00,VWS V14.01,2013-05-31 06:00:00,
2013-05-31 02:05:00,67.3,63.3,28.05,ESE,112,0.0,2.0,87,0.00,,---,0.00,VWS V14.01,2013-05-31 06:05:00,
2013-05-31 02:10:00,67.3,63.3,28.05,ESE,112,0.0,1.1,87,0.00,,---,0.00,VWS V14.01,2013-05-31 06:10:00,
2013-05-31 02:15:00,67.3,63.3,28.05,ESE,112,0.0,0.0,87,0.00,,---,0.00,VWS V14.01,2013-05-31 06:15:00,
2013-05-31 02:20:00,67.1,63.1,28.05,SSE,158,0.0,0.0,87,0.00,,---,0.00,VWS V14.01,2013-05-31 06:20:00,
2013-05-31 02:25:00,66.9,62.9,28.05,SE,135,0.0,0.0,87,0.00,,---,0.00,VWS V14.01,2013-05-31 06:25:00,
2013-05-31 02:30:00,66.9,62.9,28.05,SE,135,0.0,1.1,87,0.00,,---,0.00,VWS V14.01,2013-05-31 06:30:00,
2013-05-31 02:35:00,66.9,62.9,28.05,SE,135,0.0,1.1,87,0.00,,---,0.00,VWS V14.01,2013-05-31 06:35:00,
2013-05-31 02:40:00,66.9,62.9,28.05,SE,135,0.0,0.0,87,0.00,,---,0.00,VWS V14.01,2013-05-31 06:40:00,
2013-05-31 02:45:00,66.9,62.9,28.05,ENE,68,0.0,0.0,87,0.00,,---,0.00,VWS V14.01,2013-05-31 06:45:00,
2013-05-31 02:50:00,66.9,62.9,28.05,SE,135,0.0,0.0,87,0.00,,---,0.00,VWS V14.01,2013-05-31 06:50:00,
2013-05-31 02:55:00,66.7,62.4,28.02,SE,135,0.0,0.0,86,0.00,,---,0.00,VWS V14.01,2013-05-31 06:55:00,
2013-05-31 03:00:00,66.6,62.6,28.02,SE,135,0.0,0.0,87,0.00,,---,0.00,VWS V14.01,2013-05-31 07:00:00,
2013-05-31 03:05:00,66.6,62.6,28.02,South,180,0.0,0.0,87,0.00,,---,0.00,VWS V14.01,2013-05-31 07:05:00,
2013-05-31 03:10:00,66.2,62.2,28.05,South,180,0.0,0.0,87,0.00,,---,0.00,VWS V14.01,2013-05-31 07:10:00,
2013-05-31 03:15:00,66.2,62.2,28.05,East,90,0.0,0.0,87,0.00,,---,0.00,VWS V14.01,2013-05-31 07:15:00,
2013-05-31 03:20:00,66.0,62.4,28.05,East,90,0.0,0.0,88,0.00,,---,0.00,VWS V14.01,2013-05-31 07:20:00,
2013-05-31 03:25:00,66.0,62.4,28.05,East,90,0.0,0.0,88,0.00,,---,0.00,VWS V14.01,2013-05-31 07:25:00,
2013-05-31 03:30:00,66.0,62.4,28.05,East,90,0.0,0.0,88,0.00,,---,0.00,VWS V14.01,2013-05-31 07:30:00,
2013-05-31 03:35:00,65.8,62.2,28.05,ENE,68,0.0,0.9,88,0.00,,---,0.00,VWS V14.01,2013-05-31 07:35:00,
2013-05-31 03:40:00,65.8,62.2,28.05,ENE,68,0.0,0.0,88,0.00,,---,0.00,VWS V14.01,2013-05-31 07:40:00,
2013-05-31 03:45:00,65.8,62.2,28.05,NNE,22,0.0,1.3,88,0.00,,---,0.00,VWS V14.01,2013-05-31 07:45:00,
2013-05-31 03:50:00,65.8,62.2,28.05,SE,135,0.0,0.0,88,0.00,,---,0.00,VWS V14.01,2013-05-31 07:50:00,
2013-05-31 03:55:00,65.8,62.5,28.02,ENE,68,0.0,0.0,89,0.00,,---,0.00,VWS V14.01,2013-05-31 07:55:00,
2013-05-31 04:00:00,65.8,62.5,28.02,ENE,68,0.0,0.0,89,0.00,,---,0.00,VWS V14.01,2013-05-31 08:00:00,
2013-05-31 04:05:00,65.7,62.3,28.02,SE,135,0.0,0.0,89,0.00,,---,0.00,VWS V14.01,2013-05-31 08:05:00,
2013-05-31 04:10:00,65.8,62.5,28.02,SE,135,0.0,0.0,89,0.00,,---,0.00,VWS V14.01,2013-05-31 08:10:00,
2013-05-31 04:15:00,65.7,62.3,28.02,ESE,112,0.0,0.0,89,0.00,,---,0.00,VWS V14.01,2013-05-31 08:15:00,
2013-05-31 04:20:00,65.7,62.3,28.02,East,90,0.0,0.0,89,0.00,,---,0.00,VWS V14.01,2013-05-31 08:20:00,
2013-05-31 04:25:00,65.7,62.3,28.02,ESE,112,0.0,1.1,89,0.00,,---,0.00,VWS V14.01,2013-05-31 08:25:00,
2013-05-31 04:30:00,65.7,62.3,28.02,SSE,158,0.0,0.0,89,0.00,,---,0.00,VWS V14.01,2013-05-31 08:30:00,
2013-05-31 04:35:00,65.7,62.3,28.02,ESE,112,0.0,0.0,89,0.00,,---,0.00,VWS V14.01,2013-05-31 08:35:00,
2013-05-31 04:41:00,65.7,62.7,28.02,SE,135,0.0,0.0,90,0.00,,---,0.00,VWS V14.01,2013-05-31 08:41:00,
2013-05-31 04:46:00,65.8,62.8,28.02,SSE,158,0.0,0.0,90,0.00,,---,0.00,VWS V14.01,2013-05-31 08:46:00,
2013-05-31 04:51:00,65.7,62.7,28.05,North,0,0.0,2.2,90,0.00,,---,0.00,VWS V14.01,2013-05-31 08:51:00,
2013-05-31 04:56:00,65.7,62.7,28.05,North,0,0.0,0.0,90,0.00,,---,0.00,VWS V14.01,2013-05-31 08:56:00,
2013-05-31 05:01:00,65.7,62.7,28.05,SSE,158,0.0,0.0,90,0.00,,---,0.00,VWS V14.01,2013-05-31 09:01:00,
2013-05-31 05:06:00,65.5,62.5,28.05,NNW,338,0.0,0.0,90,0.00,,---,0.00,VWS V14.01,2013-05-31 09:06:00,
2013-05-31 05:11:00,65.5,62.5,28.05,WNW,292,0.0,0.0,90,0.00,,---,0.00,VWS V14.01,2013-05-31 09:11:00,
2013-05-31 05:16:00,65.5,62.5,28.05,SE,135,0.0,0.0,90,0.00,,---,0.00,VWS V14.01,2013-05-31 09:16:00,
2013-05-31 05:21:00,65.3,62.3,28.05,SSE,158,0.0,0.0,90,0.00,,---,0.00,VWS V14.01,2013-05-31 09:21:00,
2013-05-31 05:26:00,65.3,62.6,28.05,East,90,0.0,0.0,91,0.00,,---,0.00,VWS V14.01,2013-05-31 09:26:00,
2013-05-31 05:31:00,65.5,62.8,28.05,East,90,0.0,0.0,91,0.00,,---,0.00,VWS V14.01,2013-05-31 09:31:00,
2013-05-31 05:36:00,65.5,62.8,28.05,ESE,112,0.0,1.3,91,0.00,,---,0.00,VWS V14.01,2013-05-31 09:36:00,
2013-05-31 05:41:00,65.5,62.8,28.05,SSE,158,1.1,1.1,91,0.00,,---,0.00,VWS V14.01,2013-05-31 09:41:00,
2013-05-31 05:46:00,65.5,62.8,28.05,SW,225,0.0,0.0,91,0.00,,---,0.00,VWS V14.01,2013-05-31 09:46:00,
2013-05-31 05:51:00,65.3,62.6,28.05,ESE,112,0.0,0.0,91,0.00,,---,0.00,VWS V14.01,2013-05-31 09:51:00,
2013-05-31 05:56:00,65.3,62.6,28.05,ESE,112,0.0,0.0,91,0.00,,---,0.00,VWS V14.01,2013-05-31 09:56:00,
2013-05-31 06:01:00,65.5,62.8,28.05,East,90,0.9,1.1,91,0.00,,---,0.00,VWS V14.01,2013-05-31 10:01:00,
2013-05-31 06:06:00,65.5,62.8,28.05,SSE,158,2.0,2.0,91,0.00,,---,0.00,VWS V14.01,2013-05-31 10:06:00,
2013-05-31 06:12:00,65.5,63.1,28.05,ESE,112,0.0,0.9,92,0.00,,---,0.00,VWS V14.01,2013-05-31 10:12:00,
2013-05-31 06:17:00,65.5,62.8,28.05,SSE,158,0.0,0.9,91,0.00,,---,0.00,VWS V14.01,2013-05-31 10:17:00,
2013-05-31 06:22:00,65.5,62.8,28.05,ESE,112,0.0,0.0,91,0.00,,---,0.00,VWS V14.01,2013-05-31 10:22:00,
2013-05-31 06:27:00,65.3,62.6,28.05,SE,135,0.0,0.0,91,0.00,,---,0.00,VWS V14.01,2013-05-31 10:27:00,
2013-05-31 06:32:00,65.3,62.6,28.05,East,90,0.0,1.6,91,0.00,,---,0.00,VWS V14.01,2013-05-31 10:32:00,
2013-05-31 06:37:00,65.5,63.1,28.05,East,90,0.0,0.0,92,0.00,,---,0.00,VWS V14.01,2013-05-31 10:37:00,
2013-05-31 06:42:00,65.7,63.3,28.05,SSE,158,0.0,0.0,92,0.00,,---,0.00,VWS V14.01,2013-05-31 10:42:00,
2013-05-31 06:47:00,65.7,63.3,28.05,East,90,0.0,0.0,92,0.00,,---,0.00,VWS V14.01,2013-05-31 10:47:00,
2013-05-31 06:52:00,65.8,63.5,28.08,ESE,112,0.0,0.0,92,0.00,,---,0.00,VWS V14.01,2013-05-31 10:52:00,
2013-05-31 06:57:00,65.8,63.5,28.08,ESE,112,0.0,0.0,92,0.00,,---,0.00,VWS V14.01,2013-05-31 10:57:00,
2013-05-31 07:02:00,65.8,63.5,28.08,SE,135,0.0,0.0,92,0.00,,---,0.00,VWS V14.01,2013-05-31 11:02:00,
2013-05-31 07:07:00,66.0,63.3,28.08,South,180,0.0,0.0,91,0.00,,---,0.00,VWS V14.01,2013-05-31 11:07:00,
2013-05-31 07:13:00,66.0,63.3,28.08,SE,135,0.9,1.6,91,0.00,,---,0.00,VWS V14.01,2013-05-31 11:13:00,
2013-05-31 07:18:00,66.0,63.3,28.08,ESE,112,0.0,0.0,91,0.00,,---,0.00,VWS V14.01,2013-05-31 11:18:00,
2013-05-31 07:23:00,66.0,63.3,28.08,ESE,112,0.0,0.0,91,0.00,,---,0.00,VWS V14.01,2013-05-31 11:23:00,
2013-05-31 07:28:00,66.2,63.5,28.08,East,90,0.0,1.3,91,0.00,,---,0.00,VWS V14.01,2013-05-31 11:28:00,
2013-05-31 07:33:00,66.2,63.5,28.08,ESE,112,0.0,2.5,91,0.00,,---,0.00,VWS V14.01,2013-05-31 11:33:00,
2013-05-31 07:38:00,66.2,63.5,28.08,SSE,158,0.9,2.2,91,0.00,,---,0.00,VWS V14.01,2013-05-31 11:38:00,
2013-05-31 07:43:00,66.2,63.5,28.08,SE,135,0.0,2.5,91,0.00,,---,0.00,VWS V14.01,2013-05-31 11:43:00,
2013-05-31 07:48:00,66.2,63.5,28.08,East,90,0.0,1.1,91,0.00,,---,0.00,VWS V14.01,2013-05-31 11:48:00,
2013-05-31 07:53:00,66.2,63.5,28.08,SE,135,0.0,3.1,91,0.00,,---,0.00,VWS V14.01,2013-05-31 11:53:00,
2013-05-31 07:58:00,66.4,63.7,28.08,East,90,0.0,0.0,91,0.00,,---,0.00,VWS V14.01,2013-05-31 11:58:00,
2013-05-31 08:03:00,66.4,63.7,28.08,ESE,112,0.0,0.0,91,0.00,,---,0.00,VWS V14.01,2013-05-31 12:03:00,
2013-05-31 08:08:00,66.6,63.9,28.08,SE,135,0.0,0.0,91,0.00,,---,0.00,VWS V14.01,2013-05-31 12:08:00,
2013-05-31 08:13:00,66.6,63.9,28.08,North,0,0.0,0.0,91,0.00,,---,0.00,VWS V14.01,2013-05-31 12:13:00,
2013-05-31 08:18:00,66.6,63.9,28.08,ENE,68,0.0,1.1,91,0.00,,---,0.00,VWS V14.01,2013-05-31 12:18:00,
2013-05-31 08:23:00,66.6,63.9,28.08,SE,135,0.0,0.0,91,0.00,,---,0.00,VWS V14.01,2013-05-31 12:23:00,
2013-05-31 08:28:00,66.6,63.9,28.08,ESE,112,0.0,0.0,91,0.00,,---,0.00,VWS V14.01,2013-05-31 12:28:00,
2013-05-31 08:34:00,66.6,63.9,28.08,SSE,158,0.0,0.0,91,0.00,,---,0.00,VWS V14.01,2013-05-31 12:34:00,
2013-05-31 08:39:00,66.6,63.9,28.08,ESE,112,0.9,2.0,91,0.00,,---,0.00,VWS V14.01,2013-05-31 12:39:00,
2013-05-31 08:44:00,66.7,64.0,28.08,SSE,158,0.0,0.0,91,0.00,,---,0.00,VWS V14.01,2013-05-31 12:44:00,
2013-05-31 08:49:00,66.9,64.2,28.08,ESE,112,0.0,1.3,91,0.00,,---,0.00,VWS V14.01,2013-05-31 12:49:00,
2013-05-31 08:54:00,67.1,64.4,28.11,West,270,1.1,1.1,91,0.00,,---,0.00,VWS V14.01,2013-05-31 12:54:00,
2013-05-31 08:59:00,67.3,64.6,28.11,West,270,1.3,2.0,91,0.00,,---,0.00,VWS V14.01,2013-05-31 12:59:00,
2013-05-31 09:04:00,67.5,64.8,28.11,SW,225,0.0,0.0,91,0.00,,---,0.00,VWS V14.01,2013-05-31 13:04:00,
2013-05-31 09:09:00,67.3,64.2,28.08,ENE,68,1.1,1.1,90,0.00,,---,0.00,VWS V14.01,2013-05-31 13:09:00,
2013-05-31 09:14:00,67.3,64.2,28.08,SE,135,0.0,0.0,90,0.00,,---,0.00,VWS V14.01,2013-05-31 13:14:00,
2013-05-31 09:19:00,67.3,64.2,28.08,SSE,158,2.2,2.2,90,0.00,,---,0.00,VWS V14.01,2013-05-31 13:19:00,
2013-05-31 09:24:00,67.3,64.2,28.08,ESE,112,0.0,0.9,90,0.00,,---,0.00,VWS V14.01,2013-05-31 13:24:00,
2013-05-31 09:29:00,67.1,64.1,28.08,East,90,0.0,1.3,90,0.00,,---,0.00,VWS V14.01,2013-05-31 13:29:00,
2013-05-31 09:34:00,67.1,64.1,28.08,ESE,112,1.1,1.3,90,0.00,,---,0.00,VWS V14.01,2013-05-31 13:34:00,
2013-05-31 09:40:00,67.1,64.1,28.08,SSE,158,0.0,0.9,90,0.00,,---,0.00,VWS V14.01,2013-05-31 13:40:00,
2013-05-31 09:45:00,67.1,64.4,28.08,ENE,68,0.0,0.0,91,0.00,,---,0.00,VWS V14.01,2013-05-31 13:45:00,
2013-05-31 09:50:00,67.1,64.4,28.08,WSW,248,0.9,1.6,91,0.00,,---,0.00,VWS V14.01,2013-05-31 13:50:00,
2013-05-31 09:55:00,67.1,64.4,28.08,East,90,0.0,0.9,91,0.00,,---,0.00,VWS V14.01,2013-05-31 13:55:00,
2013-05-31 10:00:00,67.5,64.8,28.08,NW,315,0.0,1.3,91,0.00,,---,0.00,VWS V14.01,2013-05-31 14:00:00,
2013-05-31 10:05:00,67.5,64.8,28.08,SE,135,1.1,1.6,91,0.00,,---,0.00,VWS V14.01,2013-05-31 14:05:00,
2013-05-31 10:10:00,67.6,64.9,28.11,ESE,112,0.0,0.0,91,0.00,,---,0.00,VWS V14.01,2013-05-31 14:10:00,
2013-05-31 10:15:00,67.8,65.1,28.11,SSE,158,0.9,1.3,91,0.00,,---,0.00,VWS V14.01,2013-05-31 14:15:00,
2013-05-31 10:20:00,68.0,65.0,28.11,ESE,112,0.0,0.0,90,0.00,,---,0.00,VWS V14.01,2013-05-31 14:20:00,
2013-05-31 10:25:00,68.2,65.1,28.08,SE,135,1.1,1.1,90,0.00,,---,0.00,VWS V14.01,2013-05-31 14:25:00,
2013-05-31 10:30:00,68.2,65.1,28.08,WNW,292,1.1,2.0,90,0.00,,---,0.00,VWS V14.01,2013-05-31 14:30:00,
2013-05-31 10:35:00,68.2,64.8,28.08,WNW,292,0.0,0.9,89,0.00,,---,0.00,VWS V14.01,2013-05-31 14:35:00,
2013-05-31 10:40:00,68.4,65.0,28.11,SSE,158,0.0,0.0,89,0.00,,---,0.00,VWS V14.01,2013-05-31 14:40:00,
2013-05-31 10:45:00,68.2,64.8,28.11,SW,225,2.2,2.2,89,0.00,,---,0.00,VWS V14.01,2013-05-31 14:45:00,
2013-05-31 10:50:00,68.4,65.0,28.11,ESE,112,2.5,2.5,89,0.00,,---,0.00,VWS V14.01,2013-05-31 14:50:00,
2013-05-31 10:55:00,68.4,65.0,28.08,East,90,0.0,2.5,89,0.00,,---,0.00,VWS V14.01,2013-05-31 14:55:00,
2013-05-31 11:00:00,68.7,65.3,28.08,SE,135,0.0,2.0,89,0.00,,---,0.00,VWS V14.01,2013-05-31 15:00:00,
2013-05-31 11:06:00,68.7,65.0,28.08,ESE,112,0.0,1.1,88,0.00,,---,0.00,VWS V14.01,2013-05-31 15:06:00,
2013-05-31 11:11:00,69.1,65.4,28.08,East,90,0.0,0.0,88,0.00,,---,0.00,VWS V14.01,2013-05-31 15:11:00,
2013-05-31 11:16:00,69.3,65.6,28.08,East,90,0.0,0.0,88,0.00,,---,0.00,VWS V14.01,2013-05-31 15:16:00,
2013-05-31 11:21:00,69.4,65.4,28.08,SE,135,0.0,2.7,87,0.00,,---,0.00,VWS V14.01,2013-05-31 15:21:00,
2013-05-31 11:26:00,70.2,66.1,28.08,ESE,112,0.0,1.3,87,0.00,,---,0.00,VWS V14.01,2013-05-31 15:26:00,
2013-05-31 11:31:00,72.0,67.2,28.08,SSE,158,0.0,2.5,85,0.00,,---,0.00,VWS V14.01,2013-05-31 15:31:00,
2013-05-31 11:36:00,72.7,67.2,28.08,East,90,2.2,2.2,83,0.00,,---,0.00,VWS V14.01,2013-05-31 15:36:00,
2013-05-31 11:41:00,73.2,67.1,28.08,ENE,68,2.5,2.5,81,0.00,,---,0.00,VWS V14.01,2013-05-31 15:41:00,
2013-05-31 11:46:00,73.6,67.0,28.08,SE,135,0.9,1.3,80,0.00,,---,0.00,VWS V14.01,2013-05-31 15:46:00,
2013-05-31 11:51:00,73.4,66.5,28.08,East,90,0.0,2.5,79,0.00,,---,0.00,VWS V14.01,2013-05-31 15:51:00,
2013-05-31 11:56:00,72.7,65.4,28.08,SE,135,0.0,2.2,78,0.00,,---,0.00,VWS V14.01,2013-05-31 15:56:00,
2013-05-31 12:01:00,72.7,65.4,28.08,SSE,158,0.0,1.3,78,0.00,,---,0.00,VWS V14.01,2013-05-31 16:01:00,
2013-05-31 12:06:00,73.0,66.2,28.08,SE,135,1.6,1.6,79,0.00,,---,0.00,VWS V14.01,2013-05-31 16:06:00,
2013-05-31 12:11:00,74.3,67.0,28.08,East,90,0.9,3.1,78,0.00,,---,0.00,VWS V14.01,2013-05-31 16:11:00,
2013-05-31 12:16:00,74.3,66.2,28.08,East,90,0.0,2.5,76,0.00,,---,0.00,VWS V14.01,2013-05-31 16:16:00,
2013-05-31 12:21:00,75.9,68.2,28.08,SSW,202,0.0,0.0,77,0.00,,---,0.00,VWS V14.01,2013-05-31 16:21:00,
2013-05-31 12:26:00,76.1,67.6,28.08,East,90,0.0,0.9,75,0.00,,---,0.00,VWS V14.01,2013-05-31 16:26:00,
2013-05-31 12:31:00,75.9,66.7,28.08,ESE,112,1.3,2.0,73,0.00,,---,0.00,VWS V14.01,2013-05-31 16:31:00,
2013-05-31 12:37:00,75.7,66.1,28.08,East,90,1.3,1.3,72,0.00,,---,0.00,VWS V14.01,2013-05-31 16:37:00,
2013-05-31 12:42:00,75.7,66.5,28.08,East,90,0.0,0.0,73,0.00,,---,0.00,VWS V14.01,2013-05-31 16:42:00,
2013-05-31 12:47:00,75.6,66.3,28.08,SE,135,0.0,0.0,73,0.00,,---,0.00,VWS V14.01,2013-05-31 16:47:00,
2013-05-31 12:52:00,75.2,66.0,28.08,ENE,68,1.1,1.1,73,0.00,,---,0.00,VWS V14.01,2013-05-31 16:52:00,
2013-05-31 12:57:00,75.4,66.5,28.08,East,90,0.0,0.0,74,0.00,,---,0.00,VWS V14.01,2013-05-31 16:57:00,
2013-05-31 13:02:00,75.2,66.3,28.08,ESE,112,0.0,2.7,74,0.00,,---,0.00,VWS V14.01,2013-05-31 17:02:00,
2013-05-31 13:07:00,76.3,67.4,28.05,South,180,0.9,0.9,74,0.00,,---,0.00,VWS V14.01,2013-05-31 17:07:00,
2013-05-31 13:12:00,75.9,66.7,28.05,NW,315,0.9,2.0,73,0.00,,---,0.00,VWS V14.01,2013-05-31 17:12:00,
2013-05-31 13:17:00,76.6,67.3,28.05,SE,135,2.2,2.2,73,0.00,,---,0.00,VWS V14.01,2013-05-31 17:17:00,
2013-05-31 13:22:00,76.5,66.4,28.05,SSE,158,0.0,0.0,71,0.00,,---,0.00,VWS V14.01,2013-05-31 17:22:00,
2013-05-31 13:27:00,76.5,66.4,28.05,ESE,112,0.0,0.9,71,0.00,,---,0.00,VWS V14.01,2013-05-31 17:27:00,
2013-05-31 13:32:00,76.1,65.6,28.05,East,90,0.0,0.0,70,0.00,,---,0.00,VWS V14.01,2013-05-31 17:32:00,
2013-05-31 13:38:00,77.7,67.2,28.05,East,90,2.9,2.9,70,0.00,,---,0.00,VWS V14.01,2013-05-31 17:38:00,
2013-05-31 13:43:00,77.7,66.8,28.05,South,180,0.0,0.0,69,0.00,,---,0.00,VWS V14.01,2013-05-31 17:43:00,
2013-05-31 13:48:00,78.6,67.6,28.05,SSE,158,0.0,0.9,69,0.00,,---,0.00,VWS V14.01,2013-05-31 17:48:00,
2013-05-31 13:53:00,78.4,66.2,28.05,NE,45,0.9,3.4,66,0.00,,---,0.00,VWS V14.01,2013-05-31 17:53:00,
2013-05-31 13:58:00,77.7,65.5,28.05,SSW,202,0.0,0.9,66,0.00,,---,0.00,VWS V14.01,2013-05-31 17:58:00,
2013-05-31 14:03:00,77.7,66.3,28.05,South,180,0.0,0.0,68,0.00,,---,0.00,VWS V14.01,2013-05-31 18:03:00,
2013-05-31 14:08:00,78.6,66.8,28.05,SW,225,1.6,1.6,67,0.00,,---,0.00,VWS V14.01,2013-05-31 18:08:00,
2013-05-31 14:13:00,78.8,66.5,28.05,SSW,202,1.1,1.1,66,0.00,,---,0.00,VWS V14.01,2013-05-31 18:13:00,
2013-05-31 14:18:00,78.6,66.8,28.05,SE,135,0.0,0.0,67,0.00,,---,0.00,VWS V14.01,2013-05-31 18:18:00,
2013-05-31 14:23:00,80.2,67.4,28.05,SSW,202,0.0,0.0,65,0.00,,---,0.00,VWS V14.01,2013-05-31 18:23:00,
2013-05-31 14:28:00,80.8,67.0,28.05,ESE,112,0.0,1.3,63,0.00,,---,0.00,VWS V14.01,2013-05-31 18:28:00,
2013-05-31 14:33:00,81.1,67.4,28.05,NNE,22,0.9,2.5,63,0.00,,---,0.00,VWS V14.01,2013-05-31 18:33:00,
2013-05-31 14:38:00,82.0,67.3,28.05,SSE,158,0.0,2.9,61,0.00,,---,0.00,VWS V14.01,2013-05-31 18:38:00,
2013-05-31 14:43:00,83.3,68.5,28.05,SSE,158,0.0,0.0,61,0.00,,---,0.00,VWS V14.01,2013-05-31 18:43:00,
2013-05-31 14:49:00,82.9,67.6,28.05,South,180,0.0,2.0,60,0.00,,---,0.00,VWS V14.01,2013-05-31 18:49:00,
2013-05-31 14:54:00,82.2,66.5,28.05,East,90,1.1,1.3,59,0.00,,---,0.00,VWS V14.01,2013-05-31 18:54:00,
2013-05-31 14:59:00,82.2,66.0,28.05,SSE,158,0.0,1.1,58,0.00,,---,0.00,VWS V14.01,2013-05-31 18:59:00,
2013-05-31 15:04:00,81.3,65.6,28.05,SSE,158,0.0,2.2,59,0.00,,---,0.00,VWS V14.01,2013-05-31 19:04:00,
2013-05-31 15:09:00,81.9,66.1,28.05,East,90,1.1,1.1,59,0.00,,---,0.00,VWS V14.01,2013-05-31 19:09:00,
2013-05-31 15:14:00,80.8,64.6,28.05,South,180,0.0,2.5,58,0.00,,---,0.00,VWS V14.01,2013-05-31 19:14:00,
2013-05-31 15:19:00,80.6,64.5,28.05,ESE,112,0.0,3.1,58,0.00,,---,0.00,VWS V14.01,2013-05-31 19:19:00,
2013-05-31 15:24:00,81.5,65.8,28.02,SSW,202,0.9,0.9,59,0.00,,---,0.00,VWS V14.01,2013-05-31 19:24:00,
2013-05-31 15:29:00,81.7,66.0,28.02,ESE,112,1.3,1.3,59,0.00,,---,0.00,VWS V14.01,2013-05-31 19:29:00,
2013-05-31 15:34:00,81.1,65.0,28.02,SE,135,1.6,1.6,58,0.00,,---,0.00,VWS V14.01,2013-05-31 19:34:00,
2013-05-31 15:39:00,81.0,65.3,28.02,South,180,0.0,1.3,59,0.00,,---,0.00,VWS V14.01,2013-05-31 19:39:00,
2013-05-31 15:44:00,81.3,65.6,28.02,South,180,1.3,1.3,59,0.00,,---,0.00,VWS V14.01,2013-05-31 19:44:00,
2013-05-31 15:49:00,80.8,65.6,28.02,East,90,0.0,1.1,60,0.00,,---,0.00,VWS V14.01,2013-05-31 19:49:00,
2013-05-31 15:54:00,80.1,64.9,28.02,South,180,0.0,0.9,60,0.00,,---,0.00,VWS V14.01,2013-05-31 19:54:00,
2013-05-31 15:59:00,80.1,65.9,28.02,SSE,158,1.3,1.3,62,0.00,,---,0.00,VWS V14.01,2013-05-31 19:59:00,
2013-05-31 16:04:00,80.1,65.4,28.02,SSE,158,0.0,1.1,61,0.00,,---,0.00,VWS V14.01,2013-05-31 20:04:00,
2013-05-31 16:09:00,80.1,65.4,28.02,SSW,202,0.0,0.0,61,0.00,,---,0.00,VWS V14.01,2013-05-31 20:09:00,
2013-05-31 16:15:00,79.7,65.1,28.02,SE,135,0.0,0.9,61,0.00,,---,0.00,VWS V14.01,2013-05-31 20:15:00,
2013-05-31 16:20:00,79.7,65.1,28.02,SW,225,0.0,1.3,61,0.00,,---,0.00,VWS V14.01,2013-05-31 20:20:00,
2013-05-31 16:25:00,79.9,65.2,28.02,WSW,248,0.0,0.0,61,0.00,,---,0.00,VWS V14.01,2013-05-31 20:25:00,
2013-05-31 16:30:00,80.4,66.2,28.02,SW,225,1.1,2.9,62,0.00,,---,0.00,VWS V14.01,2013-05-31 20:30:00,
2013-05-31 16:35:00,80.4,65.3,28.02,SE,135,0.9,4.0,60,0.00,,---,0.00,VWS V14.01,2013-05-31 20:35:00,
2013-05-31 16:40:00,79.9,64.8,28.02,SSE,158,2.2,2.9,60,0.00,,---,0.00,VWS V14.01,2013-05-31 20:40:00,
2013-05-31 16:45:00,79.2,63.1,28.02,NE,45,1.1,3.6,58,0.00,,---,0.00,VWS V14.01,2013-05-31 20:45:00,
2013-05-31 16:50:00,78.6,63.1,28.02,South,180,1.6,2.0,59,0.00,,---,0.00,VWS V14.01,2013-05-31 20:50:00,
2013-05-31 16:55:00,78.4,63.9,28.02,SE,135,1.1,2.5,61,0.00,,---,0.00,VWS V14.01,2013-05-31 20:55:00,
2013-05-31 17:00:00,78.3,63.7,28.02,South,180,1.3,3.1,61,0.00,,---,0.00,VWS V14.01,2013-05-31 21:00:00,
2013-05-31 17:05:00,78.1,64.5,28.02,NNW,338,0.0,1.6,63,0.00,,---,0.00,VWS V14.01,2013-05-31 21:05:00,
2013-05-31 17:10:00,78.1,64.5,28.02,NNE,22,0.0,0.0,63,0.00,,---,0.00,VWS V14.01,2013-05-31 21:10:00,
2013-05-31 17:15:00,77.7,65.0,28.02,NW,315,0.0,0.0,65,0.00,,---,0.00,VWS V14.01,2013-05-31 21:15:00,
2013-05-31 17:20:00,77.5,64.9,28.02,NW,315,0.0,0.0,65,0.00,,---,0.00,VWS V14.01,2013-05-31 21:20:00,
2013-05-31 17:25:00,77.4,65.1,27.99,East,90,0.0,0.0,66,0.00,,---,0.00,VWS V14.01,2013-05-31 21:25:00,
2013-05-31 17:30:00,77.2,64.9,27.99,NNW,338,0.0,0.0,66,0.00,,---,0.00,VWS V14.01,2013-05-31 21:30:00,
2013-05-31 17:35:00,77.0,65.2,27.99,WNW,292,0.0,1.1,67,0.00,,---,0.00,VWS V14.01,2013-05-31 21:35:00,
2013-05-31 17:40:00,77.0,65.2,28.02,WNW,292,0.9,2.7,67,0.00,,---,0.00,VWS V14.01,2013-05-31 21:40:00,
2013-05-31 17:45:00,77.4,65.6,28.02,NW,315,0.0,0.0,67,0.00,,---,0.00,VWS V14.01,2013-05-31 21:45:00,
2013-05-31 17:50:00,77.5,65.3,28.02,SE,135,0.0,0.0,66,0.00,,---,0.00,VWS V14.01,2013-05-31 21:50:00,
2013-05-31 17:55:00,77.5,65.7,27.99,South,180,0.9,0.9,67,0.00,,---,0.00,VWS V14.01,2013-05-31 21:55:00,
2013-05-31 18:00:00,77.5,65.7,27.99,North,0,0.0,0.0,67,0.00,,---,0.00,VWS V14.01,2013-05-31 22:00:00,
2013-05-31 18:05:00,77.2,64.9,27.99,North,0,0.0,0.0,66,0.00,,---,0.00,VWS V14.01,2013-05-31 22:05:00,
2013-05-31 18:10:00,77.0,65.2,28.02,South,180,0.0,0.0,67,0.00,,---,0.00,VWS V14.01,2013-05-31 22:10:00,
2013-05-31 18:15:00,76.8,65.0,28.02,South,180,0.0,0.0,67,0.00,,---,0.00,VWS V14.01,2013-05-31 22:15:00,
2013-05-31 18:20:00,76.6,64.9,28.02,West,270,0.9,1.3,67,0.00,,---,0.00,VWS V14.01,2013-05-31 22:20:00,
2013-05-31 18:25:00,76.6,64.9,27.99,SE,135,0.0,0.0,67,0.00,,---,0.00,VWS V14.01,2013-05-31 22:25:00,
2013-05-31 18:30:00,76.6,64.4,27.99,West,270,0.9,0.9,66,0.00,,---,0.00,VWS V14.01,2013-05-31 22:30:00,
2013-05-31 18:35:00,76.5,64.3,27.99,SSW,202,1.1,1.6,66,0.00,,---,0.00,VWS V14.01,2013-05-31 22:35:00,
2013-05-31 18:40:00,76.3,64.5,27.99,NW,315,0.0,0.0,67,0.00,,---,0.00,VWS V14.01,2013-05-31 22:40:00,
2013-05-31 18:45:00,76.1,64.4,27.99,East,90,0.0,0.0,67,0.00,,---,0.00,VWS V14.01,2013-05-31 22:45:00,
2013-05-31 18:50:00,75.9,63.8,27.99,SE,135,0.0,0.9,66,0.00,,---,0.00,VWS V14.01,2013-05-31 22:50:00,
2013-05-31 18:56:00,75.6,63.8,27.99,WNW,292,0.0,0.0,67,0.00,,---,0.00,VWS V14.01,2013-05-31 22:56:00,
2013-05-31 19:01:00,75.4,63.2,27.99,ESE,112,0.0,2.0,66,0.00,,---,0.00,VWS V14.01,2013-05-31 23:01:00,
2013-05-31 19:06:00,75.2,63.5,27.99,NE,45,0.0,0.0,67,0.00,,---,0.00,VWS V14.01,2013-05-31 23:06:00,
2013-05-31 19:11:00,75.2,63.5,27.99,South,180,0.0,0.0,67,0.00,,---,0.00,VWS V14.01,2013-05-31 23:11:00,
2013-05-31 19:16:00,75.2,63.5,27.99,South,180,0.0,0.0,67,0.00,,---,0.00,VWS V14.01,2013-05-31 23:16:00,
2013-05-31 19:21:00,75.4,63.7,27.99,South,180,0.0,0.0,67,0.00,,---,0.00,VWS V14.01,2013-05-31 23:21:00,
2013-05-31 19:26:00,75.4,63.7,27.99,South,180,0.0,1.3,67,0.00,,---,0.00,VWS V14.01,2013-05-31 23:26:00,
2013-05-31 19:31:00,75.2,63.9,27.99,SSE,158,0.0,0.0,68,0.00,,---,0.00,VWS V14.01,2013-05-31 23:31:00,
2013-05-31 19:36:00,75.2,63.5,27.99,SSE,158,0.0,0.0,67,0.00,,---,0.00,VWS V14.01,2013-05-31 23:36:00,
2013-05-31 19:41:00,75.0,63.8,27.99,NNE,22,0.0,0.9,68,0.00,,---,0.00,VWS V14.01,2013-05-31 23:41:00,
2013-05-31 19:46:00,75.0,63.8,27.99,ENE,68,0.9,0.9,68,0.00,,---,0.00,VWS V14.01,2013-05-31 23:46:00,
2013-05-31 19:51:00,75.0,63.8,27.99,SSE,158,0.0,0.0,68,0.00,,---,0.00,VWS V14.01,2013-05-31 23:51:00,
2013-05-31 19:56:00,74.8,63.6,27.99,ESE,112,0.0,0.0,68,0.00,,---,0.00,VWS V14.01,2013-05-31 23:56:00,
2013-05-31 20:01:00,74.5,63.2,27.99,ESE,112,0.0,0.0,68,0.00,,---,0.00,VWS V14.01,2013-06-01 00:01:00,
2013-05-31 20:06:00,74.3,63.5,27.99,East,90,0.0,0.0,69,0.00,,---,0.00,VWS V14.01,2013-06-01 00:06:00,
2013-05-31 20:11:00,74.1,63.3,27.99,East,90,0.0,0.0,69,0.00,,---,0.00,VWS V14.01,2013-06-01 00:11:00,
2013-05-31 20:16:00,73.8,63.0,27.99,East,90,0.0,0.0,69,0.00,,---,0.00,VWS V14.01,2013-06-01 00:16:00,
2013-05-31 20:21:00,73.6,62.8,27.99,ENE,68,0.0,1.1,69,0.00,,---,0.00,VWS V14.01,2013-06-01 00:21:00,
2013-05-31 20:26:00,73.6,62.8,27.99,SE,135,0.9,1.1,69,0.00,,---,0.00,VWS V14.01,2013-06-01 00:26:00,
2013-05-31 20:31:00,73.4,62.6,27.99,East,90,0.0,0.0,69,0.00,,---,0.00,VWS V14.01,2013-06-01 00:31:00,
2013-05-31 20:36:00,73.2,62.9,27.99,SE,135,0.0,0.0,70,0.00,,---,0.00,VWS V14.01,2013-06-01 00:36:00,
2013-05-31 20:41:00,73.0,62.7,27.99,SE,135,0.0,0.0,70,0.00,,---,0.00,VWS V14.01,2013-06-01 00:41:00,
2013-05-31 20:46:00,72.9,62.5,27.99,SE,135,0.0,0.0,70,0.00,,---,0.00,VWS V14.01,2013-06-01 00:46:00,
2013-05-31 20:51:00,72.9,62.5,27.99,North,0,0.0,1.3,70,0.00,,---,0.00,VWS V14.01,2013-06-01 00:51:00,
2013-05-31 20:56:00,72.7,62.3,27.99,SE,135,0.0,1.6,70,0.00,,---,0.00,VWS V14.01,2013-06-01 00:56:00,
2013-05-31 21:01:00,72.7,62.3,27.99,ESE,112,0.0,0.0,70,0.00,,---,0.00,VWS V14.01,2013-06-01 01:01:00,
2013-05-31 21:06:00,72.5,62.2,27.99,East,90,1.6,1.6,70,0.00,,---,0.00,VWS V14.01,2013-06-01 01:06:00,
2013-05-31 21:11:00,72.3,62.0,27.99,South,180,1.3,1.3,70,0.00,,---,0.00,VWS V14.01,2013-06-01 01:11:00,
2013-05-31 21:16:00,72.1,61.8,27.99,South,180,0.0,1.1,70,0.00,,---,0.00,VWS V14.01,2013-06-01 01:16:00,
2013-05-31 21:21:00,72.0,61.7,27.99,SE,135,0.0,0.0,70,0.00,,---,0.00,VWS V14.01,2013-06-01 01:21:00,
2013-05-31 21:26:00,71.8,61.5,27.99,ESE,112,0.0,1.1,70,0.00,,---,0.00,VWS V14.01,2013-06-01 01:26:00,
2013-05-31 21:31:00,71.8,61.5,27.99,NNW,338,0.0,0.0,70,0.00,,---,0.00,VWS V14.01,2013-06-01 01:31:00,
2013-05-31 21:36:00,71.6,61.3,27.99,East,90,0.0,0.0,70,0.00,,---,0.00,VWS V14.01,2013-06-01 01:36:00,
2013-05-31 21:41:00,71.6,61.3,27.99,ESE,112,0.0,0.0,70,0.00,,---,0.00,VWS V14.01,2013-06-01 01:41:00,
2013-05-31 21:46:00,71.2,61.4,27.99,NW,315,0.0,1.1,71,0.00,,---,0.00,VWS V14.01,2013-06-01 01:46:00,
2013-05-31 21:51:00,71.2,61.4,27.99,East,90,1.3,2.5,71,0.00,,---,0.00,VWS V14.01,2013-06-01 01:51:00,
2013-05-31 21:56:00,71.6,61.3,27.99,SE,135,2.9,2.9,70,0.00,,---,0.00,VWS V14.01,2013-06-01 01:56:00,
2013-05-31 22:01:00,71.8,61.5,27.99,East,90,0.0,0.0,70,0.00,,---,0.00,VWS V14.01,2013-06-01 02:01:00,
2013-05-31 22:06:00,71.6,61.3,27.99,NNE,22,0.0,1.1,70,0.00,,---,0.00,VWS V14.01,2013-06-01 02:06:00,
2013-05-31 22:11:00,71.6,61.3,27.99,North,0,0.0,0.9,70,0.00,,---,0.00,VWS V14.01,2013-06-01 02:11:00,
2013-05-31 22:16:00,71.6,61.3,27.99,North,0,0.0,0.0,70,0.00,,---,0.00,VWS V14.01,2013-06-01 02:16:00,
2013-05-31 22:21:00,71.4,61.5,27.99,East,90,0.0,0.9,71,0.00,,---,0.00,VWS V14.01,2013-06-01 02:21:00,
2013-05-31 22:27:00,71.4,61.5,27.99,East,90,0.0,0.9,71,0.00,,---,0.00,VWS V14.01,2013-06-01 02:27:00,
2013-05-31 22:32:00,71.4,61.5,27.99,SE,135,0.0,0.0,71,0.00,,---,0.00,VWS V14.01,2013-06-01 02:32:00,
2013-05-31 22:37:00,71.1,61.2,27.99,NNE,22,0.0,0.0,71,0.00,,---,0.00,VWS V14.01,2013-06-01 02:37:00,
2013-05-31 22:42:00,70.9,61.4,27.99,NNE,22,0.0,0.0,72,0.00,,---,0.00,VWS V14.01,2013-06-01 02:42:00,
2013-05-31 22:47:00,70.5,61.1,27.99,NNE,22,0.0,0.0,72,0.00,,---,0.00,VWS V14.01,2013-06-01 02:47:00,
2013-05-31 22:52:00,70.3,61.3,27.99,ENE,68,0.0,0.0,73,0.00,,---,0.00,VWS V14.01,2013-06-01 02:52:00,
2013-05-31 22:57:00,70.5,61.5,27.99,NE,45,0.0,0.0,73,0.00,,---,0.00,VWS V14.01,2013-06-01 02:57:00,
2013-05-31 23:02:00,70.5,61.5,27.99,NE,45,0.0,0.0,73,0.00,,---,0.00,VWS V14.01,2013-06-01 03:02:00,
2013-05-31 23:07:00,70.3,61.7,27.99,East,90,0.0,2.0,74,0.00,,---,0.00,VWS V14.01,2013-06-01 03:07:00,
2013-05-31 23:12:00,70.3,61.7,27.99,East,90,0.0,1.6,74,0.00,,---,0.00,VWS V14.01,2013-06-01 03:12:00,
2013-05-31 23:17:00,70.5,61.8,27.99,SSE,158,0.0,0.0,74,0.00,,---,0.00,VWS V14.01,2013-06-01 03:17:00,
2013-05-31 23:22:00,70.2,61.5,27.99,NNE,22,0.0,0.0,74,0.00,,---,0.00,VWS V14.01,2013-06-01 03:22:00,
2013-05-31 23:27:00,70.2,61.5,27.99,East,90,0.0,0.0,74,0.00,,---,0.00,VWS V14.01,2013-06-01 03:27:00,
2013-05-31 23:32:00,70.0,61.7,27.99,East,90,0.0,0.0,75,0.00,,---,0.00,VWS V14.01,2013-06-01 03:32:00,
2013-05-31 23:37:00,70.0,61.7,27.99,ESE,112,0.0,0.0,75,0.00,,---,0.00,VWS V14.01,2013-06-01 03:37:00,
2013-05-31 23:42:00,70.0,61.7,27.99,East,90,0.0,0.0,75,0.00,,---,0.00,VWS V14.01,2013-06-01 03:42:00,
2013-05-31 23:47:00,70.2,61.9,27.99,ENE,68,0.0,0.0,75,0.00,,---,0.00,VWS V14.01,2013-06-01 03:47:00,
2013-05-31 23:52:00,70.0,61.7,27.99,East,90,0.0,0.0,75,0.00,,---,0.00,VWS V14.01,2013-06-01 03:52:00,
2013-05-31 23:57:00,69.8,61.9,27.99,East,90,0.0,0.0,76,0.00,,---,0.00,VWS V14.01,2013-06-01 03:57:00,